TimeCDT,TemperatureF,Dew PointF,Humidity,Sea Level PressureIn,VisibilityMPH,Wind Direction,Wind SpeedMPH,Gust SpeedMPH,PrecipitationIn,Events,Conditions,WindDirDegrees,DateUTC
12:15 AM,76.5,72.0,86,30.22,10.0,Calm,Calm,-,N/A,,Clear,0,2013-07-18 05:15:00
12:35 AM,76.1,72.0,87,30.22,10.0,South,3.5,-,N/A,,Clear,180,2013-07-18 05:35:00
12:55 AM,75.6,72.5,90,30.22,10.0,South,3.5,-,N/A,,Clear,190,2013-07-18 05:55:00
1:15 AM,76.1,71.8,86,30.22,10.0,South,3.5,-,N/A,,Clear,190,2013-07-18 06:15:00
1:35 AM,75.4,72.3,90,30.21,10.0,Calm,Calm,-,N/A,,Clear,0,2013-07-18 06:35:00
1:55 AM,75.0,72.5,92,30.21,10.0,Calm,Calm,-,N/A,,Clear,0,2013-07-18 06:55:00
2:15 AM,74.3,71.8,92,30.21,10.0,Calm,Calm,-,N/A,,Clear,0,2013-07-18 07:15:00
2:35 AM,74.7,72.1,92,30.20,10.0,South,3.5,-,N/A,,Clear,190,2013-07-18 07:35:00
2:55 AM,74.5,72.0,92,30.20,10.0,South,3.5,-,N/A,,Clear,190,2013-07-18 07:55:00
3:15 AM,74.5,71.8,91,30.19,10.0,Calm,Calm,-,N/A,,Clear,0,2013-07-18 08:15:00
3:35 AM,74.3,71.6,91,30.19,10.0,South,3.5,-,N/A,,Clear,190,2013-07-18 08:35:00
3:55 AM,74.3,71.6,91,30.19,10.0,South,3.5,-,N/A,,Clear,190,2013-07-18 08:55:00
4:15 AM,74.1,71.4,91,30.19,10.0,SSW,3.5,-,N/A,,Clear,200,2013-07-18 09:15:00
4:35 AM,73.9,71.1,91,30.18,10.0,SW,3.5,-,N/A,,Clear,220,2013-07-18 09:35:00
4:55 AM,74.1,70.2,87,30.18,10.0,SW,3.5,-,N/A,,Clear,220,2013-07-18 09:55:00
5:15 AM,73.8,70.9,91,30.17,10.0,Calm,Calm,-,N/A,,Clear,0,2013-07-18 10:15:00
5:35 AM,72.5,70.3,93,30.18,7.0,Calm,Calm,-,N/A,,Clear,0,2013-07-18 10:35:00
5:55 AM,72.0,70.3,95,30.18,10.0,Calm,Calm,-,N/A,,Clear,0,2013-07-18 10:55:00
6:15 AM,72.5,70.3,93,30.18,7.0,Calm,Calm,-,N/A,,Clear,0,2013-07-18 11:15:00
6:35 AM,73.0,71.1,93,30.18,7.0,Calm,Calm,-,N/A,,Clear,0,2013-07-18 11:35:00
6:55 AM,75.0,71.8,90,30.18,7.0,Calm,Calm,-,N/A,,Clear,0,2013-07-18 11:55:00
7:15 AM,76.5,71.6,85,30.18,7.0,Calm,Calm,-,N/A,,Clear,0,2013-07-18 12:15:00
7:35 AM,77.9,72.5,83,30.18,10.0,South,3.5,-,N/A,,Clear,190,2013-07-18 12:35:00
7:55 AM,79.7,72.9,80,30.18,10.0,SSW,4.6,-,N/A,,Clear,200,2013-07-18 12:55:00
8:15 AM,81.5,72.7,74,30.18,10.0,WSW,4.6,-,N/A,,Clear,240,2013-07-18 13:15:00
8:35 AM,82.9,72.3,70,30.17,10.0,WSW,3.5,-,N/A,,Clear,240,2013-07-18 13:35:00
8:55 AM,83.8,72.5,69,30.17,10.0,WSW,4.6,-,N/A,,Clear,240,2013-07-18 13:55:00
9:15 AM,84.7,72.9,67,30.17,10.0,WSW,3.5,-,N/A,,Clear,240,2013-07-18 14:15:00
9:35 AM,85.8,73.0,65,30.17,10.0,WSW,4.6,-,N/A,,Clear,250,2013-07-18 14:35:00
9:55 AM,86.4,72.5,63,30.17,10.0,WSW,3.5,-,N/A,,Clear,240,2013-07-18 14:55:00
10:15 AM,87.8,71.1,57,30.17,10.0,WSW,6.9,-,N/A,,Clear,240,2013-07-18 15:15:00
10:35 AM,88.9,72.3,58,30.16,10.0,SW,4.6,-,N/A,,Clear,230,2013-07-18 15:35:00
10:55 AM,89.4,71.1,55,30.16,10.0,WSW,5.8,-,N/A,,Clear,250,2013-07-18 15:55:00
11:15 AM,89.6,71.2,55,30.15,10.0,WSW,5.8,-,N/A,,Clear,240,2013-07-18 16:15:00
11:35 AM,90.5,70.7,52,30.15,10.0,WSW,5.8,-,N/A,,Clear,240,2013-07-18 16:35:00
11:55 AM,90.9,71.1,52,30.15,10.0,WSW,5.8,-,N/A,,Clear,240,2013-07-18 16:55:00
12:15 PM,91.2,71.1,51,30.14,10.0,South,5.8,-,N/A,,Scattered Clouds,190,2013-07-18 17:15:00
12:35 PM,89.8,68.9,50,30.14,10.0,WSW,4.6,-,N/A,,Scattered Clouds,240,2013-07-18 17:35:00
12:55 PM,91.0,69.4,49,30.14,10.0,SSW,5.8,-,N/A,,Scattered Clouds,200,2013-07-18 17:55:00
1:15 PM,91.8,69.8,48,30.13,10.0,SSW,9.2,-,N/A,,Scattered Clouds,210,2013-07-18 18:15:00
1:35 PM,91.4,69.6,49,30.12,10.0,South,8.1,-,N/A,,Scattered Clouds,190,2013-07-18 18:35:00
1:55 PM,92.1,69.4,47,30.11,10.0,South,8.1,17.3,N/A,,Scattered Clouds,190,2013-07-18 18:55:00
2:15 PM,92.3,69.1,46,30.10,10.0,SSW,8.1,-,N/A,,Clear,200,2013-07-18 19:15:00
2:35 PM,91.9,69.6,48,30.09,10.0,SSW,11.5,-,N/A,,Scattered Clouds,210,2013-07-18 19:35:00
2:55 PM,91.2,69.4,49,30.08,10.0,SW,6.9,-,N/A,,Mostly Cloudy,220,2013-07-18 19:55:00
3:15 PM,92.7,68.5,45,30.07,10.0,SW,10.4,-,N/A,,Scattered Clouds,220,2013-07-18 20:15:00
3:35 PM,93.0,68.4,44,30.06,10.0,SW,9.2,-,N/A,,Clear,220,2013-07-18 20:35:00
3:55 PM,93.2,68.2,44,30.06,10.0,SSW,11.5,-,N/A,,Scattered Clouds,200,2013-07-18 20:55:00
5:15 PM,92.3,67.8,44,30.03,10.0,SW,8.1,-,N/A,,Clear,220,2013-07-18 22:15:00
5:35 PM,91.6,68.9,47,30.03,10.0,SSW,8.1,-,N/A,,Clear,210,2013-07-18 22:35:00
5:55 PM,90.9,69.6,50,30.03,10.0,SSW,8.1,-,N/A,,Clear,200,2013-07-18 22:55:00
6:15 PM,90.3,69.8,51,30.02,10.0,SSW,9.2,-,N/A,,Clear,200,2013-07-18 23:15:00
6:35 PM,89.8,70.3,53,30.01,10.0,South,8.1,-,N/A,,Clear,190,2013-07-18 23:35:00
6:55 PM,89.1,70.7,54,30.01,10.0,SSW,5.8,-,N/A,,Clear,200,2013-07-18 23:55:00
7:15 PM,88.0,71.1,57,30.01,10.0,South,6.9,-,N/A,,Clear,190,2013-07-19 00:15:00
7:35 PM,86.7,71.6,61,30.01,10.0,South,5.8,-,N/A,,Clear,190,2013-07-19 00:35:00
7:55 PM,85.3,72.0,64,30.01,10.0,South,4.6,-,N/A,,Clear,180,2013-07-19 00:55:00
8:15 PM,84.2,72.5,68,30.00,10.0,South,3.5,-,N/A,,Clear,180,2013-07-19 01:15:00
8:35 PM,82.8,72.7,71,30.00,10.0,South,4.6,-,N/A,,Clear,170,2013-07-19 01:35:00
8:55 PM,82.4,72.5,72,30.01,10.0,South,5.8,-,N/A,,Clear,170,2013-07-19 01:55:00
9:15 PM,81.5,72.1,73,30.00,10.0,South,5.8,-,N/A,,Clear,170,2013-07-19 02:15:00
9:35 PM,80.8,72.3,75,30.01,10.0,South,5.8,-,N/A,,Clear,170,2013-07-19 02:35:00
9:55 PM,80.4,72.1,76,30.01,10.0,South,5.8,-,N/A,,Clear,180,2013-07-19 02:55:00
10:15 PM,79.9,72.1,77,30.00,10.0,South,6.9,-,N/A,,Clear,180,2013-07-19 03:15:00
10:35 PM,79.7,72.0,77,30.00,10.0,South,6.9,-,N/A,,Clear,190,2013-07-19 03:35:00
10:55 PM,80.1,71.8,76,30.00,10.0,South,8.1,-,N/A,,Clear,190,2013-07-19 03:55:00
11:15 PM,79.7,71.6,76,29.99,10.0,South,6.9,-,N/A,,Clear,190,2013-07-19 04:15:00
11:35 PM,78.8,71.6,78,29.99,10.0,South,6.9,-,N/A,,Clear,190,2013-07-19 04:35:00
11:55 PM,78.4,71.6,79,29.99,10.0,South,6.9,-,N/A,,Clear,190,2013-07-19 04:55:00